Tracking 28126 objects as of 1-Oct-2023
HD Live streaming from Space Station
objects crossing your sky now

THORAD AGENA D DEB

Track THORAD AGENA D DEB now!
10-day predictions


NORAD ID: 5025
Int'l Code: 1970-025HZ
Perigee: 1,046.7 km
Apogee: 1,111.6 km
Inclination: 100.2 °
Period: 106.7 minutes
Semi major axis: 7450 km
RCS: 0.0104 m2 (small)
Launch date: April 8, 1970
Source: United States (US)
Launch site: AIR FORCE WESTERN TEST RANGE (AFWTR)

Note: This is SATELLITE DEBRIS
Your satellite tracking list
Your tracking list is empty




NASA's NSSDC Master Catalog

Two Line Element Set (TLE):
1  5025U 70025HZ  23273.71049017  .00000317  00000-0  56848-3 0  9997
2  5025 100.1944 308.5576 0043540 277.5245 207.9936 13.50067825625966
Source of the keplerian elements: AFSPC